When you browse on this site, cookies collect data to enhance your experience and personalize the content and advertising you see.
Visit our Privacy Policy to learn more. By continuing to use the site, you agree to this use of cookies and data.
  • In Portugal
  • List of Countries
  • For 7 days
  • Water Temperature
  • Satellite Maps
  • Weather Map
  • Weather Widgets
  • user-avatar
    Login

    Hourly Weather Tarija

    Today, 19 April, Friday

    Time Temperature Precipitation Wind Pressure Humidity
    00:00 +19°C° 0 mm 1 mps 596 mmHg 86%
    01:00 +19°C° 0 mm 1 mps 596 mmHg 86%
    02:00 +18°C° 0 mm 1 mps 595 mmHg 84%
    03:00 +18°C° 0 mm 1 mps 595 mmHg 85%
    04:00 +18°C° 0 mm 1 mps 595 mmHg 85%
    05:00 +16°C° 0 mm 1 mps 595 mmHg 86%
    06:00 +19°C° 0 mm 1 mps 596 mmHg 81%
    07:00 +20°C° 0 mm 1 mps 597 mmHg 77%
    08:00 +21°C° 0 mm 1 mps 598 mmHg 73%
    09:00 +23°C° 0 mm 1 mps 598 mmHg 66%
    10:00 +25°C° 0 mm 2 mps 599 mmHg 60%
    11:00 +26°C° 0 mm 2 mps 600 mmHg 54%
    12:00 +27°C° 0.4 mm 3 mps 599 mmHg 54%
    13:00 +27°C° 0.4 mm 3 mps 599 mmHg 55%
    14:00 +27°C° 0.4 mm 4 mps 598 mmHg 56%
    15:00 +26°C° 0.2 mm 4 mps 598 mmHg 63%
    16:00 +25°C° 0.2 mm 3 mps 597 mmHg 70%
    17:00 +24°C° 0.2 mm 3 mps 596 mmHg 77%
    18:00 +22°C° 0.1 mm 3 mps 597 mmHg 82%
    19:00 +21°C° 0.1 mm 3 mps 597 mmHg 87%
    20:00 +21°C° 0.1 mm 2 mps 597 mmHg 91%
    21:00 +20°C° 0.2 mm 2 mps 597 mmHg 91%
    22:00 +20°C° 0.2 mm 2 mps 598 mmHg 91%
    23:00 +21°C° 0.2 mm 1 mps 598 mmHg 91%

    Tomorrow, 20 April, Saturday

    Time Temperature Precipitation Wind Pressure Humidity
    00:00 +21°C° 0.1 mm 1 mps 598 mmHg 92%
    01:00 +20°C° 0.1 mm 1 mps 598 mmHg 93%
    02:00 +18°C° 0.1 mm 0 mps 597 mmHg 94%
    03:00 +17°C° 0.1 mm 0 mps 597 mmHg 94%
    04:00 +17°C° 0.1 mm 0 mps 597 mmHg 94%
    05:00 +16°C° 0.1 mm 0 mps 596 mmHg 94%
    06:00 +17°C° 0 mm 0 mps 597 mmHg 89%
    07:00 +18°C° 0 mm 0 mps 598 mmHg 85%
    08:00 +19°C° 0 mm 0 mps 599 mmHg 80%
    09:00 +23°C° 0 mm 1 mps 599 mmHg 73%
    10:00 +24°C° 0 mm 1 mps 600 mmHg 65%
    11:00 +26°C° 0 mm 2 mps 600 mmHg 57%
    12:00 +26°C° 0.2 mm 2 mps 599 mmHg 57%
    13:00 +27°C° 0.2 mm 3 mps 599 mmHg 56%
    14:00 +27°C° 0.2 mm 4 mps 598 mmHg 56%
    15:00 +26°C° 0.5 mm 3 mps 597 mmHg 64%
    16:00 +25°C° 0.5 mm 3 mps 597 mmHg 72%
    17:00 +24°C° 0.5 mm 3 mps 596 mmHg 80%
    18:00 +22°C° 0.3 mm 3 mps 596 mmHg 84%
    19:00 +21°C° 0.3 mm 2 mps 596 mmHg 88%
    20:00 +21°C° 0.3 mm 2 mps 597 mmHg 91%
    21:00 +20°C° 0.2 mm 2 mps 597 mmHg 91%
    22:00 +20°C° 0.2 mm 2 mps 597 mmHg 91%
    23:00 +21°C° 0.2 mm 1 mps 598 mmHg 91%

    Day after tomorrow, 21 April, Sunday

    Time Temperature Precipitation Wind Pressure Humidity
    00:00 +21°C° 0.1 mm 1 mps 597 mmHg 92%
    01:00 +20°C° 0.1 mm 1 mps 597 mmHg 93%
    02:00 +18°C° 0.1 mm 0 mps 596 mmHg 94%
    03:00 +17°C° 0.1 mm 0 mps 596 mmHg 93%
    04:00 +19°C° 0.1 mm 1 mps 596 mmHg 92%
    05:00 +19°C° 0.1 mm 1 mps 595 mmHg 92%
    06:00 +20°C° 0.1 mm 1 mps 596 mmHg 88%
    07:00 +21°C° 0.1 mm 1 mps 597 mmHg 84%
    08:00 +21°C° 0.1 mm 1 mps 597 mmHg 79%
    09:00 +23°C° 0 mm 1 mps 598 mmHg 70%
    10:00 +25°C° 0 mm 1 mps 599 mmHg 62%
    11:00 +27°C° 0 mm 2 mps 599 mmHg 53%
    12:00 +27°C° 0.3 mm 2 mps 598 mmHg 52%
    13:00 +27°C° 0.3 mm 3 mps 598 mmHg 51%
    14:00 +28°C° 0.3 mm 4 mps 597 mmHg 50%
    15:00 +26°C° 0.8 mm 4 mps 596 mmHg 60%
    16:00 +25°C° 0.8 mm 3 mps 596 mmHg 70%
    17:00 +22°C° 0.8 mm 3 mps 595 mmHg 81%
    18:00 +22°C° 0.4 mm 3 mps 595 mmHg 83%
    19:00 +21°C° 0.4 mm 2 mps 596 mmHg 86%
    20:00 +20°C° 0.4 mm 2 mps 597 mmHg 89%
    21:00 +20°C° 0.9 mm 2 mps 597 mmHg 89%
    22:00 +19°C° 0.9 mm 2 mps 597 mmHg 89%
    23:00 +19°C° 0.9 mm 2 mps 598 mmHg 89%

    22 April, Monday

    Time Temperature Precipitation Wind Pressure Humidity
    00:00 +20°C° 0.1 mm 1 mps 597 mmHg 90%
    01:00 +19°C° 0.1 mm 1 mps 597 mmHg 91%
    02:00 +19°C° 0.1 mm 1 mps 597 mmHg 93%
    03:00 +19°C° 0.1 mm 1 mps 597 mmHg 93%
    04:00 +19°C° 0.1 mm 1 mps 597 mmHg 94%
    05:00 +19°C° 0.1 mm 1 mps 597 mmHg 94%
    06:00 +19°C° 0.1 mm 1 mps 597 mmHg 93%
    07:00 +19°C° 0.1 mm 1 mps 598 mmHg 91%
    08:00 +19°C° 0.1 mm 1 mps 598 mmHg 90%
    09:00 +19°C° 0.1 mm 2 mps 598 mmHg 87%
    10:00 +19°C° 0.1 mm 2 mps 599 mmHg 84%
    11:00 +19°C° 0.1 mm 3 mps 599 mmHg 81%
    12:00 +19°C° 0.1 mm 3 mps 598 mmHg 84%
    13:00 +19°C° 0.1 mm 3 mps 597 mmHg 86%
    14:00 +18°C° 0.1 mm 3 mps 596 mmHg 88%
    15:00 +18°C° 0.1 mm 3 mps 596 mmHg 88%
    16:00 +17°C° 0.1 mm 3 mps 596 mmHg 89%
    17:00 +17°C° 0.1 mm 3 mps 596 mmHg 90%
    18:00 +16°C° 0.1 mm 3 mps 596 mmHg 91%
    19:00 +16°C° 0.1 mm 3 mps 597 mmHg 92%
    20:00 +16°C° 0.1 mm 2 mps 598 mmHg 93%
    21:00 +15°C° 0.1 mm 2 mps 598 mmHg 93%
    22:00 +15°C° 0.1 mm 2 mps 599 mmHg 94%
    23:00 +15°C° 0.1 mm 2 mps 599 mmHg 94%

    23 April, Tuesday

    Time Temperature Precipitation Wind Pressure Humidity
    00:00 +15°C° 0 mm 1 mps 599 mmHg 94%
    01:00 +15°C° 0 mm 1 mps 599 mmHg 93%
    02:00 +15°C° 0 mm 1 mps 598 mmHg 93%
    03:00 +15°C° 0.1 mm 1 mps 598 mmHg 92%
    04:00 +15°C° 0.1 mm 1 mps 598 mmHg 92%
    05:00 +15°C° 0.1 mm 1 mps 598 mmHg 91%
    06:00 +15°C° 0.1 mm 1 mps 599 mmHg 91%
    07:00 +15°C° 0.1 mm 1 mps 599 mmHg 90%
    08:00 +15°C° 0.1 mm 1 mps 600 mmHg 90%
    09:00 +16°C° 0 mm 2 mps 600 mmHg 86%
    10:00 +17°C° 0 mm 2 mps 600 mmHg 81%
    11:00 +18°C° 0 mm 3 mps 600 mmHg 77%
    12:00 +18°C° 0 mm 3 mps 599 mmHg 77%
    13:00 +18°C° 0 mm 3 mps 599 mmHg 76%
    14:00 +18°C° 0 mm 4 mps 598 mmHg 76%
    15:00 +18°C° 0 mm 3 mps 597 mmHg 78%
    16:00 +17°C° 0 mm 3 mps 597 mmHg 80%
    17:00 +17°C° 0 mm 3 mps 597 mmHg 82%
    18:00 +16°C° 0 mm 3 mps 597 mmHg 85%
    19:00 +16°C° 0 mm 2 mps 597 mmHg 87%
    20:00 +15°C° 0 mm 2 mps 598 mmHg 90%
    21:00 +15°C° 0 mm 2 mps 598 mmHg 90%
    22:00 +15°C° 0 mm 2 mps 598 mmHg 90%
    23:00 +15°C° 0 mm 2 mps 598 mmHg 90%

    24 April, Wednesday

    Time Temperature Precipitation Wind Pressure Humidity
    00:00 +15°C° 0.1 mm 2 mps 598 mmHg 90%
    01:00 +15°C° 0.1 mm 2 mps 598 mmHg 90%
    02:00 +15°C° 0.1 mm 2 mps 598 mmHg 90%
    03:00 +15°C° 0 mm 2 mps 598 mmHg 90%
    04:00 +15°C° 0 mm 1 mps 598 mmHg 91%
    05:00 +14°C° 0 mm 1 mps 597 mmHg 91%
    06:00 +15°C° 0 mm 2 mps 598 mmHg 89%
    07:00 +15°C° 0 mm 2 mps 599 mmHg 87%
    08:00 +16°C° 0 mm 2 mps 599 mmHg 86%
    09:00 +17°C° 0 mm 2 mps 599 mmHg 80%
    10:00 +18°C° 0 mm 3 mps 600 mmHg 75%
    11:00 +20°C° 0 mm 3 mps 600 mmHg 69%
    12:00 +20°C° 0 mm 3 mps 599 mmHg 71%
    13:00 +20°C° 0 mm 4 mps 598 mmHg 72%
    14:00 +20°C° 0 mm 4 mps 597 mmHg 73%
    15:00 +19°C° 0 mm 3 mps 597 mmHg 77%
    16:00 +18°C° 0 mm 3 mps 597 mmHg 80%
    17:00 +17°C° 0 mm 3 mps 596 mmHg 84%
    18:00 +17°C° 0 mm 2 mps 597 mmHg 86%
    19:00 +16°C° 0 mm 2 mps 597 mmHg 87%
    20:00 +16°C° 0 mm 2 mps 597 mmHg 89%
    21:00 +16°C° 0 mm 2 mps 598 mmHg 89%
    22:00 +16°C° 0 mm 2 mps 598 mmHg 90%
    23:00 +16°C° 0 mm 2 mps 598 mmHg 90%
    Show more